| time (UTC) | temp F | wind direction | speed MPH | gust MPH | rain 1hr in | rain 24hr in | rain mn in | humidity % | barometer mb |
| 20260903081602 | 59 | 0 | 0.0 | 0.0 | 0.00 | 0.00 | 0.00 | 49 | 1022.9 |
| 20260903081044 | 59 | 0 | 0.0 | 0.0 | 0.00 | 0.00 | 0.00 | 48 | 1022.8 |
| 20260903080546 | 59 | 0 | 0.0 | 0.0 | 0.00 | 0.00 | 0.00 | 48 | 1022.9 |
| 20260903075551 | 60 | 0 | 0.0 | 0.0 | 0.00 | 0.00 | 0.00 | 47 | 1022.9 |
| 20260903075046 | 60 | 0 | 0.0 | 0.0 | 0.00 | 0.00 | 0.00 | 47 | 1022.8 |
| 20260903074602 | 60 | 0 | 0.0 | 4.0 | 0.00 | 0.00 | 0.00 | 47 | 1022.7 |
| 20260903074046 | 60 | 0 | 0.0 | 4.0 | 0.00 | 0.00 | 0.00 | 47 | 1022.8 |
| 20260903073546 | 59 | 0 | 0.0 | 0.0 | 0.00 | 0.00 | 0.00 | 48 | 1022.7 |
| 20260903073112 | 59 | 0 | 0.0 | 0.0 | 0.00 | 0.00 | 0.00 | 50 | 1022.7 |
| 20260903072549 | 59 | 0 | 0.0 | 0.0 | 0.00 | 0.00 | 0.00 | 51 | 1022.8 |
| 20260903072046 | 59 | 0 | 0.0 | 0.0 | 0.00 | 0.00 | 0.00 | 53 | 1022.7 |
| 20260903071605 | 59 | 0 | 0.0 | 0.0 | 0.00 | 0.00 | 0.00 | 54 | 1022.9 |
| 20260903071046 | 59 | 0 | 0.0 | 0.0 | 0.00 | 0.00 | 0.00 | 55 | 1023.0 |
| 20260903070552 | 59 | 0 | 0.0 | 0.0 | 0.00 | 0.00 | 0.00 | 58 | 1023.1 |
| 20260903065547 | 59 | 0 | 0.0 | 0.0 | 0.00 | 0.00 | 0.00 | 58 | 1023.2 |
| 20260903065047 | 59 | 0 | 0.0 | 0.0 | 0.00 | 0.00 | 0.00 | 58 | 1023.3 |
| 20260903064607 | 59 | 0 | 0.0 | 0.0 | 0.00 | 0.00 | 0.00 | 58 | 1023.4 |
| 20260903064046 | 59 | 0 | 0.0 | 0.0 | 0.00 | 0.00 | 0.00 | 57 | 1023.4 |
| 20260903063546 | 59 | 0 | 0.0 | 0.0 | 0.00 | 0.00 | 0.00 | 57 | 1023.4 |
| 20260903063105 | 59 | 0 | 0.0 | 0.0 | 0.00 | 0.00 | 0.00 | 58 | 1023.5 |
| 20260903062551 | 59 | 0 | 0.0 | 0.0 | 0.00 | 0.00 | 0.00 | 57 | 1023.4 |
| 20260903062047 | 59 | 0 | 0.0 | 0.0 | 0.00 | 0.00 | 0.00 | 57 | 1023.4 |
| 20260903061612 | 59 | 0 | 0.0 | 0.0 | 0.00 | 0.00 | 0.00 | 56 | 1023.4 |
| 20260903061047 | 59 | 0 | 0.0 | 0.0 | 0.00 | 0.00 | 0.00 | 56 | 1023.3 |
| 20260903060547 | 59 | 0 | 0.0 | 0.0 | 0.00 | 0.00 | 0.00 | 55 | 1023.3 |
| 20260903060109 | 59 | 0 | 0.0 | 0.0 | 0.00 | 0.00 | 0.00 | 56 | 1023.2 |
| 20260903055547 | 59 | 0 | 0.0 | 0.0 | 0.00 | 0.00 | 0.00 | 57 | 1023.2 |
| 20260903055046 | 59 | 0 | 0.0 | 0.0 | 0.00 | 0.00 | 0.00 | 57 | 1023.2 |
| 20260903054607 | 59 | 0 | 0.0 | 0.0 | 0.00 | 0.00 | 0.00 | 57 | 1023.2 |
| 20260903054047 | 59 | 0 | 0.0 | 0.0 | 0.00 | 0.00 | 0.00 | 57 | 1022.9 |
| 20260903053547 | 59 | 0 | 0.0 | 0.0 | 0.00 | 0.00 | 0.00 | 58 | 1023.0 |
| 20260903053119 | 59 | 0 | 0.0 | 0.0 | 0.00 | 0.00 | 0.00 | 58 | 1022.9 |
| 20260903052547 | 58 | 0 | 0.0 | 0.0 | 0.00 | 0.00 | 0.00 | 58 | 1023.2 |
| 20260903052048 | 58 | 0 | 0.0 | 0.0 | 0.00 | 0.00 | 0.00 | 59 | 1023.2 |
| 20260903051559 | 58 | 0 | 0.0 | 0.0 | 0.00 | 0.00 | 0.00 | 59 | 1023.2 |
| 20260903051045 | 59 | 0 | 0.0 | 0.0 | 0.00 | 0.00 | 0.00 | 59 | 1023.2 |
| 20260903050546 | 59 | 0 | 0.0 | 0.0 | 0.00 | 0.00 | 0.00 | 58 | 1023.1 |
| 20260903050106 | 59 | 0 | 0.0 | 0.0 | 0.00 | 0.00 | 0.00 | 58 | 1023.5 |
| 20260903045549 | 59 | 0 | 0.0 | 0.0 | 0.00 | 0.00 | 0.00 | 58 | 1023.5 |
| 20260903045043 | 59 | 0 | 0.0 | 0.0 | 0.00 | 0.00 | 0.00 | 57 | 1023.5 |
| 20260903044605 | 59 | 0 | 0.0 | 0.0 | 0.00 | 0.00 | 0.00 | 58 | 1023.5 |
| 20260903044045 | 59 | 0 | 0.0 | 0.0 | 0.00 | 0.00 | 0.00 | 58 | 1023.5 |
| 20260903043546 | 59 | 0 | 0.0 | 0.0 | 0.00 | 0.00 | 0.00 | 58 | 1023.6 |
| 20260903043103 | 59 | 0 | 0.0 | 0.0 | 0.00 | 0.00 | 0.00 | 58 | 1023.7 |
| 20260903042547 | 59 | 0 | 0.0 | 0.0 | 0.00 | 0.00 | 0.00 | 59 | 1023.9 |
| 20260903042046 | 59 | 0 | 0.0 | 0.0 | 0.00 | 0.00 | 0.00 | 57 | 1024.0 |
| 20260903041600 | 59 | 0 | 0.0 | 0.0 | 0.00 | 0.00 | 0.00 | 57 | 1023.9 |
| 20260903041045 | 59 | 0 | 0.0 | 0.0 | 0.00 | 0.00 | 0.00 | 57 | 1024.0 |
| 20260903040545 | 59 | 0 | 0.0 | 0.0 | 0.00 | 0.00 | 0.00 | 56 | 1023.9 |
| 20260903040107 | 59 | 0 | 0.0 | 0.0 | 0.00 | 0.00 | 0.00 | 55 | 1023.9 |
| 20260903035545 | 60 | 0 | 0.0 | 0.0 | 0.00 | 0.00 | 0.00 | 55 | 1023.7 |
| 20260903035045 | 60 | 0 | 0.0 | 0.0 | 0.00 | 0.00 | 0.00 | 54 | 1023.7 |
| 20260903034551 | 60 | 0 | 0.0 | 0.0 | 0.00 | 0.00 | 0.00 | 54 | 1023.8 |
| 20260903034048 | 61 | 0 | 0.0 | 0.0 | 0.00 | 0.00 | 0.00 | 53 | 1023.7 |
| 20260903033544 | 61 | 0 | 0.0 | 0.0 | 0.00 | 0.00 | 0.00 | 52 | 1023.7 |
| 20260903033100 | 62 | 0 | 0.0 | 0.0 | 0.00 | 0.00 | 0.00 | 51 | 1023.7 |
| 20260903032545 | 62 | 0 | 0.0 | 0.0 | 0.00 | 0.00 | 0.00 | 50 | 1023.7 |
| 20260903032044 | 63 | 0 | 0.0 | 0.0 | 0.00 | 0.00 | 0.00 | 50 | 1023.7 |
| 20260903031604 | 63 | 0 | 0.0 | 0.0 | 0.00 | 0.00 | 0.00 | 49 | 1023.8 |
| 20260903031045 | 63 | 0 | 0.0 | 4.0 | 0.00 | 0.00 | 0.00 | 50 | 1023.9 |
| 20260903030545 | 63 | 0 | 0.0 | 4.0 | 0.00 | 0.00 | 0.00 | 50 | 1023.8 |
| 20260903030112 | 63 | 281 | 0.0 | 4.0 | 0.00 | 0.00 | 0.00 | 50 | 1023.4 |
| 20260903025546 | 63 | 0 | 0.0 | 4.0 | 0.00 | 0.00 | 0.00 | 50 | 1023.3 |
| 20260903025045 | 64 | 0 | 0.0 | 4.0 | 0.00 | 0.00 | 0.00 | 49 | 1023.6 |
| 20260903024550 | 64 | 0 | 0.0 | 6.0 | 0.00 | 0.00 | 0.00 | 49 | 1023.5 |
| 20260903024045 | 64 | 0 | 0.0 | 6.0 | 0.00 | 0.00 | 0.00 | 49 | 1023.4 |
| 20260903023544 | 64 | 0 | 0.0 | 4.0 | 0.00 | 0.00 | 0.00 | 48 | 1023.3 |
| 20260903023058 | 64 | 0 | 0.0 | 4.0 | 0.00 | 0.00 | 0.00 | 49 | 1023.4 |
| 20260903022545 | 64 | 0 | 0.0 | 4.0 | 0.00 | 0.00 | 0.00 | 48 | 1023.5 |
| 20260903022045 | 64 | 0 | 0.0 | 2.0 | 0.00 | 0.00 | 0.00 | 48 | 1023.4 |
| 20260903021557 | 64 | 0 | 0.0 | 4.0 | 0.00 | 0.00 | 0.00 | 48 | 1023.2 |
| 20260903021045 | 64 | 0 | 0.0 | 4.0 | 0.00 | 0.00 | 0.00 | 49 | 1023.1 |
| 20260903020546 | 65 | 0 | 0.0 | 4.0 | 0.00 | 0.00 | 0.00 | 49 | 1023.0 |
| 20260903020057 | 65 | 0 | 0.0 | 1.0 | 0.00 | 0.00 | 0.00 | 49 | 1023.1 |
| 20260903015547 | 65 | 0 | 0.0 | 5.0 | 0.00 | 0.00 | 0.00 | 49 | 1023.0 |
| 20260903015044 | 65 | 283 | 0.0 | 5.0 | 0.00 | 0.00 | 0.00 | 49 | 1022.9 |
| 20260903014611 | 66 | 0 | 0.0 | 3.0 | 0.00 | 0.00 | 0.00 | 48 | 1023.0 |
| 20260903014046 | 66 | 0 | 0.0 | 3.0 | 0.00 | 0.00 | 0.00 | 48 | 1023.1 |
| 20260903013548 | 66 | 0 | 0.0 | 7.0 | 0.00 | 0.00 | 0.00 | 48 | 1023.1 |
| 20260903013102 | 66 | 189 | 1.0 | 7.0 | 0.00 | 0.00 | 0.00 | 47 | 1023.0 |
| 20260903012545 | 67 | 0 | 0.0 | 8.0 | 0.00 | 0.00 | 0.00 | 47 | 1022.9 |
| 20260903012049 | 67 | 0 | 0.0 | 8.0 | 0.00 | 0.00 | 0.00 | 46 | 1023.0 |
| 20260903011618 | 67 | 0 | 0.0 | 8.0 | 0.00 | 0.00 | 0.00 | 46 | 1022.9 |
| 20260903011046 | 67 | 0 | 0.0 | 8.0 | 0.00 | 0.00 | 0.00 | 45 | 1022.8 |
| 20260903010545 | 67 | 225 | 1.0 | 8.0 | 0.00 | 0.00 | 0.00 | 45 | 1022.7 |
| 20260903010119 | 67 | 0 | 0.0 | 8.0 | 0.00 | 0.00 | 0.00 | 45 | 1022.8 |
| 20260903005545 | 67 | 0 | 0.0 | 1.0 | 0.00 | 0.00 | 0.00 | 47 | 1022.7 |
| 20260903005045 | 68 | 0 | 0.0 | 0.0 | 0.00 | 0.00 | 0.00 | 48 | 1022.5 |
| 20260903004601 | 68 | 0 | 0.0 | 1.0 | 0.00 | 0.00 | 0.00 | 48 | 1022.5 |
| 20260903004045 | 68 | 0 | 0.0 | 1.0 | 0.00 | 0.00 | 0.00 | 48 | 1022.7 |
| 20260903003545 | 68 | 0 | 0.0 | 8.0 | 0.00 | 0.00 | 0.00 | 49 | 1022.6 |
| 20260903003105 | 68 | 0 | 0.0 | 8.0 | 0.00 | 0.00 | 0.00 | 47 | 1022.7 |
| 20260903002545 | 68 | 0 | 0.0 | 7.0 | 0.00 | 0.00 | 0.00 | 47 | 1022.8 |
| 20260903002046 | 68 | 0 | 1.0 | 7.0 | 0.00 | 0.00 | 0.00 | 45 | 1022.9 |
| 20260903001559 | 69 | 0 | 1.0 | 7.0 | 0.00 | 0.00 | 0.00 | 45 | 1022.9 |
| 20260903001047 | 69 | 0 | 0.0 | 4.0 | 0.00 | 0.00 | 0.00 | 46 | 1022.8 |
| 20260903000545 | 69 | 252 | 0.0 | 6.0 | 0.00 | 0.00 | 0.00 | 45 | 1022.7 |
| 20260903000056 | 69 | 0 | 0.0 | 6.0 | 0.00 | 0.00 | 0.00 | 45 | 1022.7 |
| 20260902235544 | 70 | 0 | 0.0 | 5.0 | 0.00 | 0.00 | 0.00 | 45 | 1022.7 |
| 20260902235045 | 70 | 0 | 0.0 | 5.0 | 0.00 | 0.00 | 0.00 | 45 | 1022.7 |
| 20260902234556 | 69 | 0 | 0.0 | 6.0 | 0.00 | 0.00 | 0.00 | 45 | 1022.7 |
| 20260902234045 | 69 | 220 | 0.0 | 6.0 | 0.00 | 0.00 | 0.00 | 46 | 1022.8 |
| 20260902233545 | 69 | 0 | 0.0 | 6.0 | 0.00 | 0.00 | 0.00 | 45 | 1022.8 |
| 20260902233059 | 69 | 0 | 0.0 | 7.0 | 0.00 | 0.00 | 0.00 | 47 | 1022.9 |
| 20260902232544 | 69 | 0 | 0.0 | 7.0 | 0.00 | 0.00 | 0.00 | 46 | 1023.2 |
| 20260902232045 | 69 | 0 | 0.0 | 7.0 | 0.00 | 0.00 | 0.00 | 48 | 1023.5 |
| 20260902231606 | 69 | 268 | 0.0 | 7.0 | 0.00 | 0.00 | 0.00 | 48 | 1023.6 |
| 20260902231046 | 70 | 299 | 0.0 | 8.0 | 0.00 | 0.00 | 0.00 | 49 | 1023.5 |
| 20260902230545 | 70 | 0 | 0.0 | 8.0 | 0.00 | 0.00 | 0.00 | 39 | 1023.7 |
| 20260902230057 | 70 | 0 | 0.0 | 8.0 | 0.00 | 0.00 | 0.00 | 38 | 1023.9 |
| 20260902225545 | 71 | 0 | 0.0 | 7.0 | 0.00 | 0.00 | 0.00 | 38 | 1023.9 |
| 20260902225045 | 72 | 0 | 0.0 | 6.0 | 0.00 | 0.00 | 0.00 | 36 | 1024.1 |
| 20260902224604 | 72 | 0 | 1.0 | 12.0 | 0.00 | 0.00 | 0.00 | 34 | 1023.9 |
| 20260902224049 | 73 | 0 | 0.0 | 12.0 | 0.00 | 0.00 | 0.00 | 33 | 1023.6 |
| 20260902223545 | 74 | 237 | 1.0 | 7.0 | 0.00 | 0.00 | 0.00 | 33 | 1023.6 |
| 20260902223102 | 74 | 0 | 0.0 | 2.0 | 0.00 | 0.00 | 0.00 | 30 | 1023.2 |
| 20260902222545 | 75 | 0 | 0.0 | 0.0 | 0.00 | 0.00 | 0.00 | 30 | 1022.9 |
| 20260902222047 | 75 | 0 | 0.0 | 4.0 | 0.00 | 0.00 | 0.00 | 29 | 1022.8 |
| 20260902221619 | 75 | 0 | 0.0 | 4.0 | 0.00 | 0.00 | 0.00 | 28 | 1022.6 |
| 20260902221044 | 76 | 0 | 0.0 | 4.0 | 0.00 | 0.00 | 0.00 | 28 | 1022.5 |
| 20260902220544 | 76 | 0 | 0.0 | 7.0 | 0.00 | 0.00 | 0.00 | 29 | 1022.4 |
| 20260902220100 | 77 | 0 | 0.0 | 10.0 | 0.00 | 0.00 | 0.00 | 27 | 1022.4 |
| 20260902215544 | 77 | 53 | 0.0 | 10.0 | 0.00 | 0.00 | 0.00 | 28 | 1022.5 |
| 20260902215043 | 77 | 0 | 1.0 | 5.0 | 0.00 | 0.00 | 0.00 | 27 | 1022.6 |
| 20260902214558 | 77 | 99 | 0.0 | 7.0 | 0.00 | 0.00 | 0.00 | 28 | 1022.6 |
| 20260902214045 | 77 | 0 | 1.0 | 7.0 | 0.00 | 0.00 | 0.00 | 27 | 1022.7 |
| 20260902213546 | 77 | 58 | 1.0 | 6.0 | 0.00 | 0.00 | 0.00 | 27 | 1022.7 |
| 20260902213100 | 76 | 0 | 0.0 | 5.0 | 0.00 | 0.00 | 0.00 | 28 | 1022.7 |
| 20260902212546 | 76 | 51 | 0.0 | 6.0 | 0.00 | 0.00 | 0.00 | 28 | 1022.7 |
| 20260902212044 | 76 | 0 | 0.0 | 7.0 | 0.00 | 0.00 | 0.00 | 29 | 1022.7 |
| 20260902211557 | 75 | 0 | 1.0 | 14.0 | 0.00 | 0.00 | 0.00 | 29 | 1022.9 |
| 20260902211046 | 75 | 41 | 2.0 | 14.0 | 0.00 | 0.00 | 0.00 | 30 | 1022.9 |
| 20260902210544 | 75 | 63 | 3.0 | 10.0 | 0.00 | 0.00 | 0.00 | 30 | 1023.1 |
| 20260902210103 | 75 | 42 | 1.0 | 14.0 | 0.00 | 0.00 | 0.00 | 30 | 1023.2 |
| 20260902205549 | 75 | 49 | 0.0 | 14.0 | 0.00 | 0.00 | 0.00 | 30 | 1023.4 |
| 20260902205046 | 75 | 67 | 0.0 | 6.0 | 0.00 | 0.00 | 0.00 | 31 | 1023.4 |
| 20260902204554 | 74 | 0 | 1.0 | 9.0 | 0.00 | 0.00 | 0.00 | 31 | 1023.5 |
| 20260902204043 | 73 | 0 | 0.0 | 9.0 | 0.00 | 0.00 | 0.00 | 33 | 1023.7 |
| 20260902203544 | 73 | 0 | 0.0 | 9.0 | 0.00 | 0.00 | 0.00 | 32 | 1023.7 |
| 20260902203058 | 74 | 0 | 1.0 | 9.0 | 0.00 | 0.00 | 0.00 | 31 | 1023.8 |
| 20260902202544 | 74 | 30 | 0.0 | 5.0 | 0.00 | 0.00 | 0.00 | 30 | 1023.9 |
| 20260902202048 | 74 | 42 | 0.0 | 10.0 | 0.00 | 0.00 | 0.00 | 30 | 1024.0 |
| 20260902201604 | 74 | 0 | 0.0 | 10.0 | 0.00 | 0.00 | 0.00 | 30 | 1023.9 |
| 20260902201044 | 74 | 0 | 2.0 | 10.0 | 0.00 | 0.00 | 0.00 | 30 | 1023.8 |
| 20260902200546 | 75 | 0 | 1.0 | 10.0 | 0.00 | 0.00 | 0.00 | 30 | 1023.9 |
| 20260902200055 | 75 | 84 | 0.0 | 10.0 | 0.00 | 0.00 | 0.00 | 31 | 1023.9 |
| 20260902195547 | 75 | 47 | 2.0 | 12.0 | 0.00 | 0.00 | 0.00 | 30 | 1023.9 |
| 20260902195046 | 75 | 38 | 3.0 | 12.0 | 0.00 | 0.00 | 0.00 | 31 | 1023.9 |
| 20260902194554 | 74 | 37 | 2.0 | 10.0 | 0.00 | 0.00 | 0.00 | 32 | 1024.0 |
| 20260902194044 | 73 | 42 | 1.0 | 6.0 | 0.00 | 0.00 | 0.00 | 32 | 1024.0 |
| 20260902193545 | 73 | 53 | 0.0 | 5.0 | 0.00 | 0.00 | 0.00 | 32 | 1024.1 |
| 20260902193107 | 73 | 0 | 0.0 | 10.0 | 0.00 | 0.00 | 0.00 | 32 | 1024.1 |
| 20260902192547 | 73 | 0 | 2.0 | 10.0 | 0.00 | 0.00 | 0.00 | 32 | 1024.1 |
| 20260902192044 | 73 | 0 | 0.0 | 11.0 | 0.00 | 0.00 | 0.00 | 33 | 1024.2 |
| 20260902191619 | 73 | 0 | 0.0 | 11.0 | 0.00 | 0.00 | 0.00 | 33 | 1024.3 |
| 20260902191043 | 73 | 55 | 1.0 | 9.0 | 0.00 | 0.00 | 0.00 | 32 | 1024.2 |
| 20260902190544 | 73 | 0 | 0.0 | 4.0 | 0.00 | 0.00 | 0.00 | 32 | 1024.3 |
| 20260902190056 | 74 | 0 | 0.0 | 4.0 | 0.00 | 0.00 | 0.00 | 31 | 1024.4 |
| 20260902185544 | 73 | 0 | 0.0 | 8.0 | 0.00 | 0.00 | 0.00 | 33 | 1024.3 |
| 20260902185048 | 73 | 0 | 0.0 | 8.0 | 0.00 | 0.00 | 0.00 | 33 | 1024.4 |
| 20260902184558 | 73 | 102 | 0.0 | 11.0 | 0.00 | 0.00 | 0.00 | 33 | 1024.4 |
| 20260902184045 | 74 | 55 | 1.0 | 11.0 | 0.00 | 0.00 | 0.00 | 32 | 1024.5 |
| 20260902183546 | 74 | 46 | 3.0 | 11.0 | 0.00 | 0.00 | 0.00 | 32 | 1024.5 |
| 20260902183113 | 73 | 0 | 0.0 | 6.0 | 0.00 | 0.00 | 0.00 | 33 | 1024.6 |
| 20260902182549 | 73 | 0 | 0.0 | 6.0 | 0.00 | 0.00 | 0.00 | 34 | 1024.7 |
| 20260902182045 | 73 | 0 | 0.0 | 7.0 | 0.00 | 0.00 | 0.00 | 34 | 1024.8 |
| 20260902181611 | 73 | 0 | 0.0 | 9.0 | 0.00 | 0.00 | 0.00 | 34 | 1024.9 |
| 20260902181045 | 73 | 0 | 1.0 | 9.0 | 0.00 | 0.00 | 0.00 | 34 | 1024.9 |
| 20260902180543 | 72 | 0 | 1.0 | 9.0 | 0.00 | 0.00 | 0.00 | 34 | 1025.0 |
| 20260902180104 | 73 | 0 | 1.0 | 10.0 | 0.00 | 0.00 | 0.00 | 34 | 1025.2 |
| 20260902175545 | 73 | 0 | 2.0 | 10.0 | 0.00 | 0.01 | 0.00 | 34 | 1025.3 |
| 20260902175046 | 73 | 35 | 1.0 | 7.0 | 0.00 | 0.01 | 0.00 | 31 | 1025.3 |
| 20260902174554 | 73 | 0 | 0.0 | 3.0 | 0.00 | 0.01 | 0.00 | 31 | 1025.4 |
| 20260902174045 | 72 | 0 | 0.0 | 3.0 | 0.00 | 0.01 | 0.00 | 31 | 1025.5 |
| 20260902173546 | 72 | 0 | 0.0 | 6.0 | 0.00 | 0.01 | 0.00 | 32 | 1025.5 |
| 20260902173113 | 73 | 0 | 0.0 | 6.0 | 0.00 | 0.01 | 0.00 | 31 | 1025.3 |
| 20260902172546 | 73 | 0 | 0.0 | 6.0 | 0.00 | 0.01 | 0.00 | 30 | 1025.3 |
| 20260902172045 | 74 | 0 | 0.0 | 6.0 | 0.00 | 0.01 | 0.00 | 30 | 1025.4 |
| 20260902171608 | 74 | 0 | 0.0 | 8.0 | 0.00 | 0.01 | 0.00 | 29 | 1025.4 |
| 20260902171046 | 75 | 0 | 2.0 | 8.0 | 0.00 | 0.01 | 0.00 | 29 | 1025.5 |
| 20260902170546 | 75 | 0 | 1.0 | 8.0 | 0.00 | 0.01 | 0.00 | 29 | 1025.6 |
| 20260902170103 | 75 | 0 | 0.0 | 5.0 | 0.00 | 0.01 | 0.00 | 29 | 1025.6 |
| 20260902165544 | 75 | 5 | 1.0 | 8.0 | 0.00 | 0.01 | 0.00 | 30 | 1025.7 |
| 20260902165045 | 74 | 360 | 0.0 | 8.0 | 0.00 | 0.01 | 0.00 | 30 | 1025.7 |
| 20260902164603 | 74 | 227 | 1.0 | 9.0 | 0.00 | 0.01 | 0.00 | 30 | 1025.8 |
| 20260902164044 | 74 | 0 | 1.0 | 9.0 | 0.00 | 0.01 | 0.00 | 30 | 1025.9 |
| 20260902163546 | 74 | 360 | 0.0 | 11.0 | 0.00 | 0.01 | 0.00 | 31 | 1025.8 |
| 20260902163102 | 74 | 0 | 2.0 | 11.0 | 0.00 | 0.01 | 0.00 | 30 | 1025.9 |
| 20260902162545 | 74 | 202 | 1.0 | 10.0 | 0.00 | 0.01 | 0.00 | 30 | 1025.9 |
| 20260902162046 | 73 | 0 | 1.0 | 8.0 | 0.00 | 0.01 | 0.00 | 30 | 1025.9 |
| 20260902161552 | 73 | 258 | 1.0 | 9.0 | 0.00 | 0.01 | 0.00 | 31 | 1025.9 |
| 20260902161046 | 73 | 262 | 0.0 | 9.0 | 0.00 | 0.01 | 0.00 | 31 | 1025.9 |
| 20260902160546 | 72 | 262 | 1.0 | 9.0 | 0.00 | 0.01 | 0.00 | 31 | 1025.8 |
| 20260902160050 | 72 | 0 | 2.0 | 7.0 | 0.00 | 0.01 | 0.00 | 31 | 1025.9 |
| 20260902155545 | 72 | 191 | 1.0 | 8.0 | 0.00 | 0.01 | 0.00 | 32 | 1025.8 |
| 20260902155045 | 72 | 0 | 1.0 | 8.0 | 0.00 | 0.01 | 0.00 | 32 | 1025.8 |
| 20260902154558 | 72 | 0 | 2.0 | 7.0 | 0.00 | 0.01 | 0.00 | 31 | 1025.9 |
| 20260902154047 | 71 | 205 | 0.0 | 7.0 | 0.00 | 0.01 | 0.00 | 32 | 1025.7 |
| 20260902153544 | 71 | 0 | 1.0 | 8.0 | 0.00 | 0.01 | 0.00 | 33 | 1025.8 |
| 20260902153056 | 71 | 0 | 1.0 | 8.0 | 0.00 | 0.01 | 0.00 | 32 | 1025.7 |
| 20260902152545 | 71 | 314 | 0.0 | 4.0 | 0.00 | 0.01 | 0.00 | 34 | 1025.5 |
| 20260902152046 | 71 | 0 | 1.0 | 5.0 | 0.00 | 0.01 | 0.00 | 33 | 1025.6 |
| 20260902151550 | 70 | 0 | 0.0 | 6.0 | 0.00 | 0.01 | 0.00 | 33 | 1025.5 |
| 20260902151045 | 70 | 257 | 1.0 | 6.0 | 0.00 | 0.01 | 0.00 | 33 | 1025.6 |
| 20260902150547 | 70 | 216 | 0.0 | 9.0 | 0.00 | 0.01 | 0.00 | 34 | 1025.5 |
| 20260902145545 | 69 | 0 | 0.0 | 6.0 | 0.00 | 0.01 | 0.00 | 34 | 1025.5 |
| 20260902145044 | 68 | 0 | 0.0 | 6.0 | 0.00 | 0.01 | 0.00 | 35 | 1025.5 |
| 20260902144558 | 68 | 283 | 0.0 | 0.0 | 0.00 | 0.01 | 0.00 | 36 | 1025.5 |
| 20260902144044 | 68 | 0 | 0.0 | 0.0 | 0.00 | 0.01 | 0.00 | 36 | 1025.4 |
| 20260902143545 | 67 | 0 | 0.0 | 0.0 | 0.00 | 0.01 | 0.00 | 35 | 1025.4 |
| 20260902143109 | 67 | 0 | 0.0 | 0.0 | 0.00 | 0.01 | 0.00 | 37 | 1025.4 |
| 20260902142544 | 67 | 0 | 0.0 | 0.0 | 0.00 | 0.01 | 0.00 | 36 | 1025.3 |
| 20260902142045 | 67 | 0 | 0.0 | 0.0 | 0.00 | 0.01 | 0.00 | 37 | 1025.4 |
| 20260902141549 | 66 | 0 | 0.0 | 0.0 | 0.00 | 0.01 | 0.00 | 38 | 1025.4 |
| 20260902141045 | 66 | 0 | 0.0 | 0.0 | 0.00 | 0.01 | 0.00 | 37 | 1025.4 |
| 20260902140546 | 66 | 0 | 0.0 | 0.0 | 0.00 | 0.01 | 0.00 | 38 | 1025.3 |
| 20260902140100 | 65 | 0 | 0.0 | 0.0 | 0.00 | 0.01 | 0.00 | 40 | 1025.3 |
| 20260902135544 | 65 | 0 | 0.0 | 0.0 | 0.00 | 0.01 | 0.00 | 40 | 1025.5 |
| 20260902135044 | 64 | 0 | 0.0 | 0.0 | 0.00 | 0.01 | 0.00 | 41 | 1025.5 |
| 20260902134558 | 63 | 0 | 0.0 | 0.0 | 0.00 | 0.01 | 0.00 | 42 | 1025.4 |
| 20260902134043 | 63 | 0 | 0.0 | 0.0 | 0.00 | 0.01 | 0.00 | 44 | 1025.4 |
| 20260902133543 | 61 | 0 | 0.0 | 0.0 | 0.00 | 0.01 | 0.00 | 44 | 1025.6 |
| 20260902133056 | 61 | 0 | 0.0 | 0.0 | 0.00 | 0.01 | 0.00 | 46 | 1025.6 |
| 20260902132544 | 60 | 0 | 0.0 | 0.0 | 0.00 | 0.01 | 0.00 | 47 | 1025.4 |
| 20260902132048 | 59 | 0 | 0.0 | 0.0 | 0.00 | 0.01 | 0.00 | 47 | 1025.2 |
| 20260902131555 | 59 | 0 | 0.0 | 4.0 | 0.00 | 0.01 | 0.00 | 47 | 1025.2 |
| 20260902131046 | 59 | 0 | 0.0 | 4.0 | 0.00 | 0.01 | 0.00 | 47 | 1025.2 |
| 20260902130546 | 59 | 0 | 0.0 | 4.0 | 0.00 | 0.01 | 0.00 | 48 | 1025.1 |
| 20260902130057 | 58 | 0 | 0.0 | 0.0 | 0.00 | 0.01 | 0.00 | 49 | 1024.9 |
| 20260902125547 | 58 | 0 | 0.0 | 7.0 | 0.00 | 0.01 | 0.00 | 50 | 1024.9 |
| 20260902125045 | 58 | 0 | 0.0 | 7.0 | 0.00 | 0.01 | 0.00 | 50 | 1024.8 |
| 20260902124556 | 57 | 0 | 1.0 | 7.0 | 0.00 | 0.01 | 0.00 | 51 | 1024.8 |
| 20260902124044 | 57 | 0 | 0.0 | 7.0 | 0.00 | 0.01 | 0.00 | 52 | 1024.8 |
| 20260902123544 | 56 | 0 | 0.0 | 1.0 | 0.00 | 0.01 | 0.00 | 55 | 1024.8 |
| 20260902123106 | 56 | 0 | 0.0 | 1.0 | 0.00 | 0.01 | 0.00 | 55 | 1024.7 |
| 20260902122545 | 56 | 0 | 0.0 | 0.0 | 0.00 | 0.01 | 0.00 | 55 | 1024.7 |
| 20260902122047 | 57 | 0 | 0.0 | 3.0 | 0.00 | 0.01 | 0.00 | 55 | 1024.7 |
| 20260902121600 | 57 | 0 | 0.0 | 4.0 | 0.00 | 0.01 | 0.00 | 55 | 1024.7 |
| 20260902121046 | 57 | 0 | 0.0 | 4.0 | 0.00 | 0.01 | 0.00 | 55 | 1024.6 |
| 20260902120545 | 57 | 0 | 0.0 | 9.0 | 0.00 | 0.01 | 0.00 | 56 | 1024.5 |
| 20260902120059 | 57 | 0 | 0.0 | 9.0 | 0.00 | 0.01 | 0.00 | 56 | 1024.6 |
| 20260902115544 | 57 | 0 | 0.0 | 5.0 | 0.00 | 0.01 | 0.00 | 56 | 1024.4 |
| 20260902115044 | 57 | 278 | 0.0 | 6.0 | 0.00 | 0.01 | 0.00 | 56 | 1024.4 |
| 20260902114556 | 58 | 0 | 0.0 | 8.0 | 0.00 | 0.01 | 0.00 | 55 | 1024.4 |
| 20260902114044 | 58 | 261 | 0.0 | 8.0 | 0.00 | 0.01 | 0.00 | 55 | 1024.5 |
| 20260902113544 | 58 | 0 | 1.0 | 6.0 | 0.00 | 0.01 | 0.00 | 55 | 1024.4 |
| 20260902113102 | 58 | 259 | 0.0 | 5.0 | 0.00 | 0.01 | 0.00 | 54 | 1024.4 |
| 20260902112547 | 58 | 0 | 0.0 | 5.0 | 0.00 | 0.01 | 0.00 | 54 | 1024.4 |
| 20260902112043 | 59 | 0 | 0.0 | 4.0 | 0.00 | 0.01 | 0.00 | 53 | 1024.5 |
| 20260902111607 | 59 | 0 | 0.0 | 4.0 | 0.00 | 0.01 | 0.00 | 53 | 1024.5 |
| 20260902111046 | 58 | 0 | 0.0 | 4.0 | 0.00 | 0.01 | 0.00 | 54 | 1024.6 |
| 20260902110546 | 58 | 0 | 0.0 | 13.0 | 0.00 | 0.01 | 0.00 | 55 | 1024.6 |
| 20260902110058 | 58 | 0 | 1.0 | 13.0 | 0.00 | 0.01 | 0.00 | 56 | 1024.6 |
| 20260902105550 | 57 | 263 | 0.0 | 4.0 | 0.00 | 0.01 | 0.00 | 56 | 1024.7 |
| 20260902105044 | 57 | 0 | 0.0 | 4.0 | 0.00 | 0.01 | 0.00 | 56 | 1024.8 |
| 20260902104603 | 57 | 0 | 0.0 | 4.0 | 0.00 | 0.01 | 0.00 | 56 | 1024.8 |
| 20260902104044 | 57 | 0 | 0.0 | 3.0 | 0.00 | 0.01 | 0.00 | 57 | 1024.8 |
| 20260902103548 | 57 | 0 | 0.0 | 2.0 | 0.00 | 0.01 | 0.00 | 56 | 1024.7 |
| 20260902103052 | 57 | 0 | 0.0 | 0.0 | 0.00 | 0.01 | 0.00 | 55 | 1024.7 |
| 20260902102544 | 57 | 0 | 0.0 | 0.0 | 0.00 | 0.01 | 0.00 | 55 | 1024.7 |
| 20260902102044 | 57 | 0 | 0.0 | 0.0 | 0.00 | 0.01 | 0.00 | 55 | 1024.6 |
| 20260902101600 | 57 | 0 | 0.0 | 0.0 | 0.00 | 0.01 | 0.00 | 54 | 1024.7 |
| 20260902101046 | 58 | 0 | 0.0 | 0.0 | 0.00 | 0.01 | 0.00 | 54 | 1024.7 |
| 20260902100544 | 58 | 0 | 0.0 | 7.0 | 0.00 | 0.01 | 0.00 | 54 | 1024.7 |
| 20260902100058 | 58 | 0 | 0.0 | 7.0 | 0.00 | 0.01 | 0.00 | 53 | 1024.7 |
| 20260902095545 | 58 | 278 | 0.0 | 4.0 | 0.00 | 0.01 | 0.00 | 53 | 1024.6 |
| 20260902095043 | 58 | 293 | 0.0 | 2.0 | 0.00 | 0.01 | 0.00 | 53 | 1024.6 |
| 20260902094558 | 58 | 0 | 0.0 | 3.0 | 0.00 | 0.01 | 0.00 | 53 | 1024.6 |
| 20260902094044 | 58 | 0 | 0.0 | 3.0 | 0.00 | 0.01 | 0.00 | 53 | 1024.6 |
| 20260902093545 | 58 | 0 | 0.0 | 5.0 | 0.00 | 0.01 | 0.00 | 53 | 1024.6 |
| 20260902093101 | 59 | 0 | 0.0 | 5.0 | 0.00 | 0.01 | 0.00 | 53 | 1024.7 |
| 20260902092544 | 59 | 0 | 0.0 | 5.0 | 0.00 | 0.01 | 0.00 | 52 | 1024.7 |
| 20260902092044 | 59 | 0 | 0.0 | 5.0 | 0.00 | 0.01 | 0.00 | 51 | 1024.8 |
| 20260902091603 | 59 | 0 | 0.0 | 1.0 | 0.00 | 0.01 | 0.00 | 51 | 1024.8 |
| 20260902091044 | 59 | 0 | 0.0 | 3.0 | 0.00 | 0.01 | 0.00 | 51 | 1024.8 |
| 20260902090544 | 59 | 0 | 0.0 | 3.0 | 0.00 | 0.01 | 0.00 | 51 | 1024.8 |
| 20260902090120 | 59 | 0 | 0.0 | 4.0 | 0.00 | 0.01 | 0.00 | 51 | 1024.8 |
| 20260902085543 | 59 | 0 | 0.0 | 5.0 | 0.00 | 0.01 | 0.00 | 51 | 1024.9 |
| 20260902085047 | 59 | 311 | 0.0 | 5.0 | 0.00 | 0.01 | 0.00 | 51 | 1024.7 |
| 20260902084604 | 59 | 0 | 0.0 | 5.0 | 0.00 | 0.01 | 0.00 | 51 | 1024.7 |
| 20260902084046 | 59 | 0 | 0.0 | 5.0 | 0.00 | 0.01 | 0.00 | 52 | 1024.7 |
| 20260902083543 | 59 | 0 | 0.0 | 7.0 | 0.00 | 0.01 | 0.00 | 52 | 1024.7 |
| 20260902083106 | 59 | 0 | 0.0 | 7.0 | 0.00 | 0.01 | 0.00 | 52 | 1024.7 |
| 20260902082544 | 59 | 0 | 0.0 | 4.0 | 0.00 | 0.01 | 0.00 | 52 | 1024.7 |
| 20260902082044 | 59 | 0 | 0.0 | 4.0 | 0.00 | 0.01 | 0.00 | 52 | 1024.9 |